Content
SEND FEEDBACK

Daily
Averages
Monthly
Summary
United States of America

SOUTH LAKE TAHOE - AIRPORT, CALIFORNIA


Home > North America > United States > California
Elevation: 6250 feet     Latitude: 38 54N     Longitude: 120 00W

WEATHER
 
SELECT A DAY
Number of Records: 174,537;   Date Range: 1/1/95 - 8/30/14
 
SHARE

PRINT THIS DATA

[ ← Previous Day ]
WEATHER ALMANAC - JUNE 24, 2013
[ Next Day → ]
[ °C ]   °F
We're sorry. There is no daily almanac available for South Lake Tahoe - Airport, California on June 24, 2013.
WEATHER BY HOUR - JUNE 24, 2013
[ °C ]   °F
Local TimeTemperatureDewpointHumidityBarometerVisibilityWind DirectionWind SpeedGust SpeedPrecipitationEventsConditions
1:53 AM53.1 °F30.9 °F43 %29.77 in10.0 miSSW (200°)10.4 mph17.3 mphOvercast
2:53 AM53.1 °F34.0 °F48 %29.75 in10.0 miSouth (190°)11.5 mphMostly Cloudy
3:53 AM53.1 °F37.0 °F55 %29.74 in10.0 miSSW (200°)13.8 mph21.9 mphOvercast
4:53 AM53.1 °F37.9 °F57 %29.72 in10.0 miSSW (200°)9.2 mphMostly Cloudy
5:53 AM53.1 °F39.9 °F61 %29.73 in10.0 miSSW (200°)12.7 mph24.2 mph0.00 inRainLight Rain
6:53 AM54.0 °F39.0 °F57 %29.73 in10.0 miSSW (200°)18.4 mph25.3 mph0.00 inRainLight Rain
7:49 AM51.8 °F42.8 °F71 %29.90 in4.0 miSSW (200°)9.2 mph0.01 inRainLight Rain
7:53 AM50.0 °F43.0 °F77 %29.77 in3.0 miSSW (210°)8.1 mph20.7 mph0.02 inRainLight Rain
8:12 AM50.0 °F44.6 °F82 %29.90 in2.5 miSSW (210°)5.8 mph0.02 inRainRain
8:23 AM50.0 °F44.6 °F82 %29.90 in3.0 miVariable3.5 mph0.03 inRainLight Rain
8:41 AM50.0 °F44.6 °F82 %29.91 in5.0 miVariable6.9 mph0.05 inRainLight Rain
8:53 AM51.1 °F45.0 °F80 %29.78 in6.0 miSouth (180°)10.4 mph19.6 mph0.05 inRainLight Rain
9:53 AM51.1 °F43.0 °F74 %29.81 in8.0 miSouth (180°)10.4 mph0.02 inRainLight Rain
10:53 AM52.0 °F44.1 °F74 %29.81 in10.0 miSSW (200°)10.4 mph19.6 mph0.03 inRainLight Rain
11:53 AM52.0 °F44.1 °F74 %29.82 in8.0 miSouth (190°)12.7 mph21.9 mph0.01 inRainLight Rain
12:53 PM52.0 °F45.0 °F77 %29.83 in5.0 miVariable6.9 mph0.01 inRainLight Rain
1:53 PM54.0 °F44.1 °F69 %29.82 in10.0 miSSW (200°)10.4 mph24.2 mph0.00 inRainLight Rain
2:49 PM53.6 °F44.6 °F72 %29.97 in4.0 miVariable3.5 mph0.01 inRainLight Rain
2:53 PM53.1 °F46.0 °F77 %29.85 in3.0 miSSE (160°)5.8 mph0.01 inRainLight Rain
2:59 PM51.8 °F46.4 °F82 %29.98 in5.0 miSouth (190°)6.9 mph0.00 inRainLight Rain
3:24 PM51.8 °F46.4 °F82 %29.99 in3.0 miVariable3.5 mph0.03 inRainRain
3:45 PM51.8 °F46.4 °F82 %29.99 in6.0 miSE (140°)4.6 mph0.04 inRainLight Rain
3:53 PM53.1 °F46.0 °F77 %29.86 in7.0 miSouth (170°)6.9 mph0.04 inRainLight Rain
4:35 PM51.8 °F44.6 °F76 %30.00 in9.0 miSouth (190°)9.2 mph0.01 inRainLight Rain
4:50 PM51.8 °F44.6 °F76 %30.01 in7.0 miSouth (180°)8.1 mph0.01 inRainLight Rain
4:53 PM51.1 °F44.1 °F77 %29.89 in7.0 miSouth (180°)10.4 mph0.01 inRainLight Rain
5:53 PM52.0 °F45.0 °F77 %29.88 in10.0 miSouth (180°)8.1 mph0.01 inRainLight Rain
6:53 PM51.1 °F44.1 °F77 %29.88 in10.0 miSouth (180°)6.9 mph0.01 inRainLight Rain
7:07 PM51.8 °F44.6 °F76 %30.01 in8.0 miSSE (160°)5.8 mph0.00 inRainLight Rain
7:22 PM51.8 °F44.6 °F76 %30.00 in9.0 miSSW (200°)8.1 mph0.00 inRainLight Rain
7:32 PM51.8 °F44.6 °F76 %30.01 in10.0 miSSW (200°)4.6 mph0.00 inOvercast
7:53 PM51.1 °F44.1 °F77 %29.89 in5.0 miCalm0.00 inRainLight Rain
8:00 PM50.0 °F44.6 °F82 %30.00 in3.0 miCalm0.00 inRainLight Rain
8:09 PM50.0 °F44.6 °F82 %30.00 in7.0 miCalm0.00 inRainLight Rain
8:25 PM51.8 °F44.6 °F76 %30.00 in10.0 miSSW (200°)3.5 mph0.00 inOvercast
8:53 PM51.1 °F45.0 °F80 %29.88 in9.0 miCalm0.00 inRainLight Rain
9:44 PM50.0 °F44.6 °F82 %30.01 in4.0 miCalm0.01 inRainLight Rain
9:53 PM50.0 °F46.0 °F86 %29.91 in4.0 miVariable3.5 mph0.02 inRainLight Rain
10:25 PM50.0 °F46.4 °F87 %30.02 in7.0 miCalm0.01 inRainLight Rain
10:40 PM50.0 °F46.4 °F87 %30.02 in9.0 miCalm0.01 inRainLight Rain
10:53 PM50.0 °F46.0 °F86 %29.91 in10.0 miCalm0.01 inRainLight Rain
11:53 PM51.1 °F46.0 °F83 %29.90 in4.0 miCalm0.02 inRainLight Rain
Hourly data recorded from KTVL, located miles away from South Lake Tahoe - Airport, California







STORIES FROM OUR PARTNERS